User: anonymous
Location: Oshawa
(43.9000°N, 78.8670°W)
Time: 00:01:13
(UTC-04:00)
Language:

IDEFIX/ARIANE 42P - Orbit

View from above orbital plane
View from above orbital plane
View from above satellite
View from above satellite

Ground track
Ground track

The orbit data is extracted from the following two-line orbital elements,

1 27422U 02021B   14273.18833672  .00000220  00000-0  10301-3 0  6086
2 27422 098.2901 310.6301 0011109 293.9098 108.0668 14.29055156645130
Epoch (UTC): 30 September 2014 04:31:12
Eccentricity: 0.0011109
inclination: 98.2901°
perigee height: 787 km
apogee height: 803 km
right ascension of ascending node: 310.6301°
argument of perigee: 293.9098°
revolutions per day: 14.29055156
mean anomaly at epoch: 108.0668°
orbit number at epoch: 64513

The dashed part of the orbit path shows where the satellite is in the earth's shadow,  

DLR